User: anonymous
Location: Unspecified
(0.0000°N, 0.0000°E)
Time: 05:56:37
(UTC+02:00)
Language:

Cosmos 2263 Rocket - Orbit

View from above orbital plane
View from above orbital plane
View from above satellite
View from above satellite

Ground track
Ground track

The orbit data is extracted from the following two-line orbital elements,

1 22803U 93059B   14113.69282901 -.00000233  00000-0 -92547-4 0  2565
2 22803 070.9887 153.6143 0018587 331.2533 028.7564 14.16663568 65333
Epoch (UTC): 23 April 2014 16:37:40
Eccentricity: 0.0018587
inclination: 70.9887°
perigee height: 823 km
apogee height: 850 km
right ascension of ascending node: 153.6143°
argument of perigee: 331.2533°
revolutions per day: 14.16663568
mean anomaly at epoch: 28.7564°
orbit number at epoch: 6533

The dashed part of the orbit path shows where the satellite is in the earth's shadow,  

DLR